KC3BAN-13 Weather Reports


time (UTC)temp
F
wind
direction
speed
knots
gust
knots
rain 1hr
in
rain 24hr
in
rain mn
in
humidity
%
barometer
mb
20260506204747 71 209 1.7 8.7 0.00 0.12 0.12 78 1000.4
20260506204242 70 198 1.7 6.1 0.00 0.12 0.12 79 1000.3
20260506203737 70 217 1.7 5.2 0.00 0.12 0.12 79 1000.4
20260506203229 70 221 2.6 6.1 0.00 0.12 0.12 80 1000.4
20260506202723 70 193 2.6 7.0 0.00 0.12 0.12 79 1000.4
20260506202217 70 227 2.6 7.0 0.00 0.12 0.12 79 1000.4
20260506201711 70 242 2.6 7.8 0.00 0.12 0.12 79 1000.5
20260506201434 70 215 2.6 9.6 0.00 0.12 0.12 78 1000.5
20260506200659 70 216 1.7 9.6 0.00 0.12 0.12 78 1000.5
20260506200153 70 258 1.7 7.0 0.00 0.12 0.12 78 1000.4
20260506195648 70 198 1.7 5.2 0.00 0.12 0.12 79 1000.4
20260506195141 71 224 1.7 5.2 0.00 0.12 0.12 77 1000.5
20260506194637 71 153 0.9 4.3 0.00 0.12 0.12 79 1000.4
20260506194130 71 285 1.7 7.0 0.00 0.12 0.12 78 1000.4
20260506193623 70 220 1.7 7.0 0.00 0.12 0.12 79 1000.6
20260506193118 70 282 0.9 5.2 0.00 0.12 0.12 80 1000.6
20260506192612 69 225 1.7 9.6 0.00 0.12 0.12 80 1000.6
20260506192335 69 108 1.7 9.6 0.00 0.12 0.12 79 1000.8
20260506191822 69 213 1.7 8.7 0.00 0.12 0.12 79 1000.8
20260506191054 69 262 0.9 4.3 0.00 0.12 0.12 79 1000.9
20260506190547 69 238 1.7 7.8 0.00 0.12 0.12 80 1000.9
20260506190040 69 224 2.6 7.8 0.00 0.12 0.12 79 1001.0
20260506185533 69 190 1.7 7.0 0.00 0.12 0.12 78 1001.1
20260506185028 69 281 2.6 6.1 0.00 0.12 0.12 79 1001.0
20260506184521 69 143 1.7 8.7 0.00 0.12 0.12 79 1001.0
20260506184017 69 202 2.6 8.7 0.00 0.12 0.12 78 1001.1
20260506183728 69 241 1.7 7.0 0.00 0.12 0.12 78 1001.3
20260506183005 69 119 1.7 5.2 0.00 0.12 0.12 80 1001.3
20260506182457 69 251 0.9 6.1 0.00 0.12 0.12 79 1001.2
20260506181951 69 240 1.7 12.2 0.00 0.12 0.12 80 1001.4
20260506181708 69 153 2.6 12.2 0.01 0.12 0.12 80 1001.6
20260506180939 69 266 2.6 10.4 0.01 0.12 0.12 80 1001.5
20260506180437 68 146 2.6 7.0 0.01 0.12 0.12 81 1001.6
20260506175938 68 243 2.6 7.8 0.01 0.12 0.12 82 1001.7
20260506175438 67 136 2.6 7.8 0.01 0.12 0.12 82 1001.7
20260506174935 67 96 1.7 6.1 0.01 0.12 0.12 84 1001.7
20260506174656 67 255 2.6 7.8 0.01 0.12 0.12 83 1001.9
20260506173935 67 217 2.6 7.8 0.01 0.12 0.12 84 1001.5
20260506173706 66 274 2.6 11.3 0.01 0.12 0.12 84 1001.6
20260506172935 66 198 2.6 11.3 0.01 0.12 0.12 84 1001.7
20260506172434 66 211 3.5 11.3 0.01 0.12 0.12 84 1001.9
20260506171934 66 205 3.5 12.2 0.01 0.12 0.12 84 1001.9
20260506171434 66 223 3.5 12.2 0.00 0.11 0.11 85 1001.9
20260506170934 66 236 1.7 10.4 0.00 0.11 0.11 86 1002.0
20260506170434 66 167 1.7 8.7 0.00 0.11 0.11 86 1001.8
20260506165934 65 215 1.7 6.1 0.00 0.11 0.11 87 1001.9
20260506165434 65 218 1.7 6.1 0.00 0.11 0.11 87 1001.9
20260506164934 65 227 1.7 8.7 0.00 0.11 0.11 87 1001.9
20260506164434 64 92 1.7 8.7 0.00 0.11 0.11 87 1002.0
20260506163931 65 217 0.9 6.1 0.00 0.11 0.11 87 1002.0
20260506163430 64 269 1.7 8.7 0.01 0.11 0.11 87 1001.9
20260506162930 64 188 1.7 8.7 0.01 0.11 0.11 87 1002.0
20260506162433 64 223 2.6 8.7 0.01 0.11 0.11 87 1002.1
20260506161931 64 209 1.7 6.1 0.01 0.11 0.11 87 1002.0
20260506161432 64 126 1.7 7.8 0.02 0.11 0.11 87 1001.9
20260506160931 63 148 1.7 7.8 0.02 0.11 0.11 87 1002.3
20260506160430 63 245 0.9 5.2 0.02 0.11 0.11 87 1002.4
20260506155930 63 206 0.9 5.2 0.02 0.11 0.11 87 1002.4
20260506155428 63 223 0.9 6.1 0.03 0.11 0.11 87 1002.4
20260506154929 63 124 1.7 6.1 0.03 0.11 0.11 87 1002.4
20260506154429 63 168 0.9 4.3 0.04 0.11 0.11 87 1002.2
20260506153929 62 211 0.9 2.6 0.06 0.11 0.11 87 1002.1
20260506153644 62 212 0.9 5.2 0.06 0.10 0.10 87 1002.3
20260506152921 62 225 0.9 5.2 0.07 0.10 0.10 87 1002.5
20260506152420 63 231 0.9 4.3 0.08 0.10 0.10 87 1002.9
20260506151921 63 127 0.9 5.2 0.09 0.10 0.10 87 1003.1
20260506151421 63 235 0.9 5.2 0.08 0.09 0.09 87 1003.2
20260506150920 62 212 0.0 4.3 0.08 0.09 0.09 87 1003.2
20260506150420 62 217 0.0 1.7 0.08 0.09 0.09 87 1003.1
20260506145921 62 205 0.0 1.7 0.08 0.09 0.09 87 1003.1
20260506145420 62 150 0.0 1.7 0.08 0.08 0.08 87 1003.0
20260506144921 62 238 0.0 1.7 0.08 0.08 0.08 87 1003.2
20260506144417 62 264 0.0 1.7 0.07 0.07 0.07 87 1003.2
20260506144146 62 159 0.0 2.6 0.05 0.05 0.06 86 1003.1
20260506143416 62 205 0.9 5.2 0.04 0.04 0.04 86 1003.1
20260506142917 62 236 0.9 5.2 0.03 0.03 0.03 86 1003.1
20260506141916 63 176 0.9 5.2 0.01 0.01 0.01 85 1003.1
20260506141417 63 219 0.9 7.0 0.01 0.01 0.01 85 1003.2
20260506140917 63 177 1.7 7.0 0.01 0.01 0.01 84 1003.3
20260506140417 64 229 1.7 6.1 0.01 0.01 0.01 83 1003.3
20260506135914 64 27 1.7 6.1 0.01 0.01 0.01 81 1003.4
20260506135644 65 225 0.9 6.1 0.00 0.00 0.00 80 1003.3
20260506134914 65 148 0.9 5.2 0.00 0.00 0.00 78 1003.4
20260506134414 65 261 0.9 8.7 0.00 0.00 0.00 78 1003.4
20260506133914 65 236 1.7 8.7 0.00 0.00 0.00 77 1003.4
20260506133414 65 236 0.9 5.2 0.00 0.00 0.00 77 1003.4
20260506132914 65 253 0.9 3.5 0.00 0.00 0.00 77 1003.4
20260506132639 65 249 0.9 5.2 0.00 0.00 0.00 77 1003.2
20260506131914 65 226 1.7 5.2 0.00 0.00 0.00 77 1003.2
20260506131409 65 224 1.7 7.0 0.00 0.00 0.00 76 1003.1
20260506131134 65 211 0.9 7.0 0.00 0.00 0.00 77 1003.1
20260506130408 65 234 0.9 3.5 0.00 0.00 0.00 77 1003.0
20260506125908 65 229 0.9 6.1 0.00 0.00 0.00 76 1003.0
20260506125408 65 217 0.9 6.1 0.00 0.00 0.00 76 1003.0
20260506124909 65 140 1.7 7.0 0.00 0.00 0.00 76 1002.9
20260506124409 65 209 0.9 7.0 0.00 0.00 0.00 76 1002.9
20260506124134 65 234 0.9 4.3 0.00 0.00 0.00 76 1002.9
20260506123408 65 117 0.9 4.3 0.00 0.00 0.00 76 1003.0
20260506122905 65 222 0.9 6.1 0.00 0.00 0.00 76 1003.1
20260506122404 66 127 0.9 6.1 0.00 0.00 0.00 75 1003.2
20260506121904 66 234 0.9 5.2 0.00 0.00 0.00 76 1003.2
20260506121404 66 152 0.9 4.3 0.00 0.00 0.00 76 1003.2
20260506120904 66 9 0.9 6.1 0.00 0.00 0.00 76 1003.3
20260506120631 66 214 0.9 7.0 0.00 0.00 0.00 76 1003.2
20260506115904 66 245 1.7 7.0 0.00 0.00 0.00 75 1003.2
20260506115402 66 224 1.7 7.0 0.00 0.00 0.00 75 1003.1
20260506114400 66 162 0.9 5.2 0.00 0.00 0.00 76 1003.0
20260506113900 66 222 0.9 8.7 0.00 0.00 0.00 76 1002.9
20260506113354 66 259 1.7 8.7 0.00 0.00 0.00 76 1002.9
20260506112849 66 299 1.7 7.0 0.00 0.00 0.00 77 1002.8
20260506112346 65 155 2.6 5.2 0.00 0.00 0.00 77 1002.9
20260506111846 65 231 1.7 7.0 0.00 0.00 0.00 78 1002.6
20260506111346 65 198 1.7 7.0 0.00 0.00 0.00 78 1002.7
20260506110845 65 223 1.7 7.0 0.00 0.00 0.00 78 1002.7
20260506110611 65 250 1.7 7.0 0.00 0.00 0.00 78 1002.7
20260506105841 65 116 1.7 7.0 0.00 0.00 0.00 79 1002.6
20260506105602 64 265 1.7 7.0 0.00 0.00 0.00 79 1002.7
20260506104838 64 122 1.7 5.2 0.00 0.00 0.00 79 1002.6
20260506104339 64 120 1.7 7.0 0.00 0.00 0.00 79 1002.5
20260506103836 64 277 1.7 7.0 0.00 0.00 0.00 79 1002.6
20260506103337 64 297 0.9 7.0 0.00 0.00 0.00 79 1002.5
20260506102836 64 205 0.9 7.0 0.00 0.00 0.00 80 1002.5
20260506102334 64 176 1.7 7.0 0.00 0.00 0.00 80 1002.5
20260506101835 64 276 0.9 7.0 0.00 0.00 0.00 80 1002.5
20260506101335 64 211 0.9 5.2 0.00 0.00 0.00 80 1002.5
20260506100834 64 181 0.9 5.2 0.00 0.00 0.00 80 1002.4
20260506100335 64 248 0.9 5.2 0.00 0.00 0.00 80 1002.5
20260506095834 64 236 0.9 4.3 0.00 0.00 0.00 80 1002.5
20260506095337 64 200 0.9 4.3 0.00 0.00 0.00 80 1002.5
20260506094834 64 214 0.9 7.0 0.00 0.00 0.00 79 1002.5
20260506094334 64 224 0.9 7.0 0.00 0.00 0.00 79 1002.6
20260506093834 64 226 0.9 5.2 0.00 0.00 0.00 79 1002.7
20260506093334 64 164 0.9 4.3 0.00 0.00 0.00 79 1002.7
20260506093059 64 143 0.9 4.3 0.00 0.00 0.00 79 1002.6
20260506092334 64 245 0.9 3.5 0.00 0.00 0.00 79 1002.6
20260506091832 64 274 0.9 5.2 0.00 0.00 0.00 78 1002.7
20260506091332 64 69 0.9 5.2 0.00 0.00 0.00 78 1002.7
20260506091057 65 196 0.9 3.5 0.00 0.00 0.00 78 1002.7
20260506090331 65 229 0.9 3.5 0.00 0.00 0.00 77 1002.5
20260506085832 65 226 0.9 7.8 0.00 0.00 0.00 77 1002.8
20260506085330 65 259 0.9 7.8 0.00 0.00 0.00 77 1002.8
20260506084831 65 230 0.9 5.2 0.00 0.00 0.00 76 1002.7
20260506084330 65 232 1.7 5.2 0.00 0.00 0.00 76 1002.7
20260506083825 65 129 1.7 8.7 0.00 0.00 0.00 76 1002.7
20260506083317 65 238 1.7 8.7 0.00 0.00 0.00 76 1002.8
20260506082812 65 202 0.9 7.0 0.00 0.00 0.00 76 1002.8
20260506082306 65 187 0.9 4.3 0.00 0.00 0.00 76 1002.8
20260506081759 66 313 0.9 4.3 0.00 0.00 0.00 76 1002.8
20260506081254 66 229 1.7 6.1 0.00 0.00 0.00 75 1002.6
20260506080749 66 278 0.9 6.1 0.00 0.00 0.00 75 1002.6
20260506080508 66 249 0.9 4.3 0.00 0.00 0.00 75 1002.7
20260506073205 66 211 0.9 4.3 0.00 0.00 0.00 74 1002.9
20260506072700 67 250 0.9 10.4 0.00 0.00 0.00 73 1002.9
20260506072424 67 215 0.9 10.4 0.00 0.00 0.00 73 1002.9
20260506071648 67 37 0.9 3.5 0.00 0.00 0.00 72 1003.0
20260506071142 67 227 0.9 7.8 0.00 0.00 0.00 72 1003.0
20260506070636 68 139 1.7 6.1 0.00 0.00 0.00 71 1003.0
20260506070129 68 214 0.9 6.1 0.00 0.00 0.00 71 1003.0
20260506062041 69 185 1.7 7.8 0.00 0.00 0.00 68 1003.1
20260506061536 69 233 0.9 4.3 0.00 0.00 0.00 68 1003.1
20260506061030 69 175 0.9 7.8 0.00 0.00 0.00 67 1003.1
20260506060524 69 198 0.9 7.8 0.00 0.00 0.00 67 1003.1
20260506051145 70 263 1.7 6.1 0.00 0.00 0.00 61 1003.5
20260506050412 70 255 1.7 11.3 0.00 0.00 0.00 60 1003.6
20260506044854 71 302 0.9 5.2 0.00 0.00 0.00 59 1003.6
20260506044348 71 219 1.7 6.1 0.00 0.00 0.00 59 1003.6
20260506043841 71 239 1.7 6.1 0.00 0.00 0.00 58 1003.5
20260506043335 71 177 1.7 5.2 0.00 0.00 0.00 58 1003.5
20260506042832 71 231 1.7 6.1 0.00 0.00 0.00 57 1003.6
20260506042332 71 221 1.7 6.1 0.00 0.00 0.00 57 1003.6
20260506041832 71 268 1.7 5.2 0.00 0.00 0.00 56 1003.6
20260506041332 71 213 0.9 6.1 0.00 0.00 0.00 56 1003.6
20260506040832 71 210 1.7 10.4 0.00 0.00 0.00 56 1003.6
20260506040332 71 217 1.7 10.4 0.00 0.00 0.00 56 1003.6
20260506035834 71 193 1.7 7.8 0.00 0.00 0.00 56 1003.6
20260506035331 72 224 2.6 7.8 0.00 0.00 0.00 55 1003.6
20260506034831 72 254 2.6 7.8 0.00 0.00 0.00 55 1003.6
20260506034331 72 192 2.6 7.8 0.00 0.00 0.00 55 1003.4
20260506034055 71 227 1.7 7.8 0.00 0.00 0.00 55 1003.5
20260506033332 71 181 1.7 7.8 0.00 0.00 0.00 55 1003.4
20260506032829 71 211 2.6 8.7 0.00 0.00 0.00 54 1003.4
20260506032329 71 286 1.7 8.7 0.00 0.00 0.00 54 1003.3
20260506031829 71 105 0.9 4.3 0.00 0.00 0.00 54 1003.3
20260506031329 71 180 1.7 7.8 0.00 0.00 0.00 54 1003.3
20260506030824 72 229 0.9 7.8 0.00 0.00 0.00 53 1003.4
20260506030317 72 304 0.9 5.2 0.00 0.00 0.00 53 1003.4
20260506030035 72 226 0.9 6.1 0.00 0.00 0.00 52 1003.3
20260506025306 72 200 1.7 6.1 0.00 0.00 0.00 52 1003.4
20260506024759 72 242 1.7 6.1 0.00 0.00 0.00 52 1003.4
20260506024254 72 246 0.9 7.0 0.00 0.00 0.00 51 1003.5
20260506023746 72 3 0.9 7.0 0.00 0.00 0.00 51 1003.5
20260506023240 72 209 0.9 7.0 0.00 0.00 0.00 51 1003.5
20260506022741 72 201 0.9 4.3 0.00 0.00 0.00 51 1003.7
20260506022239 72 268 0.9 5.2 0.00 0.00 0.00 51 1003.6
20260506021737 72 264 0.9 8.7 0.00 0.00 0.00 51 1003.5
20260506021239 72 114 0.9 8.7 0.00 0.00 0.00 50 1003.5
20260506020739 72 188 0.9 2.6 0.00 0.00 0.00 49 1003.6
20260506020235 72 211 0.9 3.5 0.00 0.00 0.00 49 1003.5
20260506015735 73 231 0.0 3.5 0.00 0.00 0.00 47 1003.4
20260506015001 73 295 1.7 6.1 0.00 0.00 0.00 45 1003.4
20260506014235 73 238 0.9 6.1 0.00 0.00 0.00 45 1003.3
20260506013735 73 222 0.0 3.5 0.00 0.00 0.00 44 1003.3
20260506013236 73 269 0.0 4.3 0.00 0.00 0.00 44 1003.2
20260506012952 73 225 0.0 4.3 0.00 0.00 0.00 42 1003.2
20260506012234 74 251 0.0 3.5 0.00 0.00 0.00 41 1003.2
20260506011736 74 219 0.0 3.5 0.00 0.00 0.00 40 1003.2
20260506011231 74 245 0.9 7.8 0.00 0.00 0.00 40 1003.0
20260506010729 75 217 1.7 10.4 0.00 0.00 0.00 40 1002.9
20260506010228 74 221 1.7 10.4 0.00 0.00 0.00 39 1002.9
20260506005951 74 254 0.9 4.3 0.00 0.00 0.00 40 1002.8
20260506005221 75 245 0.9 4.3 0.00 0.00 0.00 39 1002.7
20260506004715 75 335 0.9 6.1 0.00 0.00 0.00 39 1002.7
20260506004208 75 264 0.9 6.1 0.00 0.00 0.00 38 1002.6
20260506003704 75 238 0.9 6.1 0.00 0.00 0.00 39 1002.6
20260506003157 75 223 0.9 6.1 0.00 0.00 0.00 38 1002.5
20260506002917 75 220 0.9 5.2 0.00 0.00 0.00 39 1002.5
20260506002145 76 179 0.9 5.2 0.00 0.00 0.00 38 1002.5
20260506001639 76 108 0.9 5.2 0.00 0.00 0.00 39 1002.4
20260506001351 76 174 0.9 5.2 0.00 0.00 0.00 38 1002.4
20260506000851 76 185 0.9 5.2 0.00 0.00 0.00 37 1002.3
20260506000121 76 134 0.9 5.2 0.00 0.00 0.00 37 1002.3
20260505235615 77 127 0.9 3.5 0.00 0.00 0.00 37 1002.3
20260505235108 77 137 0.9 6.1 0.00 0.00 0.00 36 1002.2
20260505234604 78 222 0.9 6.1 0.00 0.00 0.00 36 1002.3
20260505234057 78 115 0.0 5.2 0.00 0.00 0.00 37 1002.3
20260505233551 78 219 0.0 5.2 0.00 0.00 0.00 34 1002.2
20260505233045 79 230 0.9 4.3 0.00 0.00 0.00 35 1002.2
20260505232538 79 283 0.9 4.3 0.00 0.00 0.00 34 1002.2
20260505232034 79 209 0.9 2.6 0.00 0.00 0.00 34 1002.2
20260505231526 79 216 0.9 4.3 0.00 0.00 0.00 33 1002.1
20260505231021 79 235 0.9 4.3 0.00 0.00 0.00 32 1002.2
20260505230515 80 229 1.7 7.0 0.00 0.00 0.00 33 1002.2
20260505230009 80 219 2.6 10.4 0.00 0.00 0.00 32 1002.2
20260505225504 80 222 1.7 10.4 0.00 0.00 0.00 31 1002.2
20260505224957 80 210 1.7 7.8 0.00 0.00 0.00 32 1002.2
20260505224451 81 224 1.7 8.7 0.00 0.00 0.00 31 1002.1
20260505223945 81 302 1.7 8.7 0.00 0.00 0.00 30 1002.1
20260505223655 81 234 1.7 7.0 0.00 0.00 0.00 31 1002.1
20260505222934 81 161 2.6 7.0 0.00 0.00 0.00 30 1002.1
20260505222650 81 252 2.6 10.4 0.00 0.00 0.00 31 1002.0
20260505221921 81 241 3.5 10.4 0.00 0.00 0.00 31 1002.1
20260505221415 81 229 2.6 11.3 0.00 0.00 0.00 29 1002.2
20260505220909 82 242 2.6 11.3 0.00 0.00 0.00 29 1002.2
20260505220404 82 221 3.5 11.3 0.00 0.00 0.00 29 1002.3
20260505220121 82 266 2.6 11.3 0.00 0.00 0.00 29 1002.1
20260505215351 82 238 2.6 9.6 0.00 0.00 0.00 29 1002.1
20260505214845 82 227 3.5 13.0 0.00 0.00 0.00 29 1002.0
20260505214605 82 140 3.5 13.0 0.00 0.00 0.00 28 1002.0
20260505213834 82 255 2.6 9.6 0.00 0.00 0.00 29 1002.1
20260505213326 83 214 2.6 9.6 0.00 0.00 0.00 29 1002.0
20260505212821 83 175 1.7 6.1 0.00 0.00 0.00 31 1002.0
20260505212538 83 251 1.7 8.7 0.00 0.00 0.00 30 1001.9
20260505211809 83 238 2.6 8.7 0.00 0.00 0.00 31 1001.8
20260505211304 83 176 3.5 20.9 0.00 0.00 0.00 31 1001.7
20260505210757 84 220 3.5 20.9 0.00 0.00 0.00 31 1001.8
20260505210250 84 217 2.6 9.6 0.00 0.00 0.00 31 1001.8
20260505205745 85 266 1.7 9.6 0.00 0.00 0.00 30 1001.8
20260505205506 85 177 2.6 9.6 0.00 0.00 0.00 31 1001.8